Weather History for EGUL - October, 2012

Change the Weather History Date:

Sunday, October 28, 2012

  Actual Average (EGSC) Record (EGSC)
Temperature  
Mean Temperature 40 °F -  
Max Temperature 47 °F 54 °F 66 °F (2014)
Min Temperature 32 °F 45 °F 30 °F (1997)
Degree Days  
Heating Degree Days 25    
Moisture  
Dew Point 40 °F    
Average Humidity 91    
Maximum Humidity 95    
Minimum Humidity 81    
Precipitation  
Precipitation 0.11 in - - ()
Sea Level Pressure  
Sea Level Pressure 29.91 in    
Wind  
Wind Speed 8 mph ()    
Max Wind Speed 15 mph    
Max Gust Speed -    
Visibility 6.2 miles    
Events Rain    
Averages and records for this station are not official NWS values.
T = Trace of Precipitation, MM = Missing Value Source: Averaged Metar Reports

Daily Weather History Graph

Daily Weather History Graph

Search for Another Location

Airport or City:

Trip Planner

Search our weather history database for the weather conditions in past years. The results will help you decide how hot, cold, wet, or windy it might be!

Date:

Astronomy

Oct. 28, 2012 Rise Set
Actual Time 6:46 AM GMT 4:35 PM GMT
Civil Twilight 6:11 AM GMT 5:10 PM GMT
Nautical Twilight 5:31 AM GMT 5:50 PM GMT
Astronomical Twilight 4:51 AM GMT 6:30 PM GMT
Moon 3:47 PM GMT (10/28) 5:20 AM GMT (10/28)
Length of Visible Light 10h 59m
Length of Day
9h 48m
Waxing Gibbous, 98% of the Moon is Illuminated
Oct 28
Waxing Gibbous
Oct 29
Full
Nov 7
Last Quarter
Nov 13
New
Nov 20
First Quarter

Hourly Weather History & Observations

Time (GMT) Temp. Windchill Dew Point Humidity Pressure Visibility Wind Dir Wind Speed Gust Speed Precip Events Conditions
12:58 AM 33.4 °F 30.4 °F 31.5 °F 92% 30.11 in 6.2 mi SSW 3.5 mph - N/A   Clear
1:58 AM 32.9 °F - 31.5 °F 94% 30.09 in 6.2 mi South 1.2 mph - N/A   Mostly Cloudy
1:58 AM 32.5 °F 27.1 °F 31.3 °F 95% 30.07 in 6.2 mi SSW 5.8 mph - N/A   Partly Cloudy
2:58 AM 33.1 °F 27.7 °F 31.3 °F 93% 30.05 in 6.2 mi SW 5.8 mph - N/A   Mostly Cloudy
3:58 AM 33.4 °F 28.1 °F 31.6 °F 93% 30.03 in 6.2 mi SW 5.8 mph - N/A   Overcast
4:58 AM 33.8 °F 28.6 °F 31.8 °F 92% 30.00 in 6.2 mi SW 5.8 mph - N/A   Mostly Cloudy
5:58 AM 35.2 °F 28.8 °F 32.7 °F 91% 29.98 in 6.2 mi SW 8.1 mph - N/A   Mostly Cloudy
6:58 AM 36.5 °F 30.3 °F 33.3 °F 88% 29.97 in 6.2 mi SSW 8.1 mph - N/A   Overcast
7:01 AM 37.4 °F 30.8 °F 32.0 °F 81% 29.96 in 6.2 mi SSW 9.2 mph - N/A   Overcast
7:31 AM 37.4 °F 30.8 °F 33.8 °F 87% 29.96 in 6.2 mi SSW 9.2 mph - N/A Rain Light Rain
7:32 AM 37.4 °F 30.8 °F 33.8 °F 87% 29.96 in 6.2 mi SSW 9.2 mph - N/A Rain Light Rain
7:44 AM 37.4 °F 30.8 °F 33.8 °F 87% 29.96 in 6.2 mi SSW 9.2 mph - N/A   Overcast
7:58 AM 38.7 °F 32.9 °F 35.1 °F 87% 29.96 in 6.2 mi SSW 8.1 mph - 0.00 in   Overcast
8:12 AM 39.2 °F 33.0 °F 35.6 °F 87% 29.94 in 6.2 mi SW 9.2 mph - N/A   Overcast
8:13 AM 39.2 °F 33.0 °F 35.6 °F 87% 29.94 in 6.2 mi SW 9.2 mph - N/A   Overcast
8:32 AM 39.2 °F 32.5 °F 37.4 °F 93% 29.94 in 6.2 mi SW 10.4 mph - N/A   Overcast
8:39 AM 39.2 °F 32.5 °F 37.4 °F 93% 29.94 in 6.2 mi SW 10.4 mph - N/A Rain Light Rain
8:40 AM 39.2 °F 32.5 °F 37.4 °F 93% 29.94 in 6.2 mi SW 10.4 mph - N/A Rain Light Rain
8:44 AM 39.2 °F 32.0 °F 37.4 °F 93% 29.94 in 6.2 mi SW 11.5 mph - N/A Rain Light Rain
8:46 AM 39.2 °F 32.0 °F 37.4 °F 93% 29.94 in 6.2 mi SW 11.5 mph - N/A Rain Light Rain
8:52 AM 39.2 °F 32.0 °F 37.4 °F 93% 29.93 in 6.2 mi SW 11.5 mph - N/A Rain Light Rain
8:58 AM 39.9 °F 33.4 °F 37.0 °F 89% 29.94 in 6.2 mi SW 10.4 mph - 0.00 in   Overcast
9:01 AM 39.2 °F 32.5 °F 37.4 °F 93% 29.93 in 6.2 mi SW 10.4 mph - N/A   Overcast
9:03 AM 39.2 °F 32.5 °F 37.4 °F 93% 29.93 in 6.2 mi SW 10.4 mph - N/A   Overcast
9:15 AM 41.0 °F 35.2 °F 37.4 °F 87% 29.93 in 6.2 mi SW 9.2 mph - N/A   Overcast
9:16 AM 41.0 °F 35.2 °F 37.4 °F 87% 29.93 in 6.2 mi SW 9.2 mph - N/A   Overcast
9:17 AM 41.0 °F 35.2 °F 37.4 °F 87% 29.93 in 6.2 mi SW 9.2 mph - N/A   Overcast
9:18 AM 41.0 °F 34.7 °F 37.4 °F 87% 29.93 in 6.2 mi SW 10.4 mph - N/A   Overcast
9:20 AM 41.0 °F 35.2 °F 37.4 °F 87% 29.93 in 6.2 mi SW 9.2 mph - N/A Rain Light Rain
9:29 AM 41.0 °F 35.2 °F 39.2 °F 93% 29.92 in 6.2 mi SSW 9.2 mph - N/A   Overcast
9:37 AM 41.0 °F 34.7 °F 39.2 °F 93% 29.92 in 6.2 mi SSW 10.4 mph - N/A   Mostly Cloudy
9:39 AM 41.0 °F 35.2 °F 39.2 °F 93% 29.92 in 6.2 mi SSW 9.2 mph - N/A   Mostly Cloudy
9:44 AM 41.0 °F 35.2 °F 39.2 °F 93% 29.92 in 6.2 mi SSW 9.2 mph - N/A   Overcast
9:58 AM 42.3 °F 36.8 °F 39.7 °F 91% 29.94 in 6.2 mi SW 9.2 mph - 0.00 in   Mostly Cloudy
10:25 AM 42.8 °F 36.2 °F 41.0 °F 93% 29.91 in 6.2 mi SW 12.7 mph - N/A   Overcast
10:32 AM 42.8 °F 36.2 °F 41.0 °F 93% 29.91 in 6.2 mi SW 12.7 mph - N/A   Overcast
10:34 AM 42.8 °F 36.6 °F 41.0 °F 93% 29.91 in 6.2 mi SW 11.5 mph - N/A   Overcast
10:48 AM 42.8 °F 36.6 °F 41.0 °F 93% 29.91 in 6.2 mi SW 11.5 mph - N/A Rain Light Rain
10:58 AM 43.5 °F 37.1 °F 40.6 °F 90% 29.92 in 6.2 mi SW 12.7 mph - 0.00 in Rain Light Rain
11:07 AM 44.6 °F 38.8 °F 41.0 °F 87% 29.90 in 6.2 mi SW 11.5 mph - N/A   Overcast
11:17 AM 44.6 °F 38.1 °F 41.0 °F 87% 29.90 in 6.2 mi SW 13.8 mph - N/A   Overcast
11:58 AM 45.0 °F 39.7 °F 41.9 °F 89% 29.89 in 6.2 mi SW 10.4 mph - 0.00 in   Overcast
12:16 PM 46.4 °F 40.1 °F 42.8 °F 87% 29.88 in 6.2 mi SW 15.0 mph - N/A   Overcast
12:17 PM 46.4 °F 40.4 °F 42.8 °F 87% 29.88 in 6.2 mi SW 13.8 mph - N/A   Overcast
12:21 PM 46.4 °F 40.7 °F 42.8 °F 87% 29.87 in 6.2 mi SW 12.7 mph - N/A   Overcast
12:24 PM 46.4 °F 41.1 °F 42.8 °F 87% 29.87 in 6.2 mi SW 11.5 mph - N/A   Overcast
12:36 PM 46.4 °F 40.7 °F 42.8 °F 87% 29.87 in 6.2 mi SW 12.7 mph - N/A   Mostly Cloudy
12:46 PM 46.4 °F 41.1 °F 42.8 °F 87% 29.86 in 6.2 mi SW 11.5 mph - N/A   Overcast
12:58 PM 45.7 °F 39.8 °F 42.4 °F 88% 29.87 in 6.2 mi SW 12.7 mph - N/A   Mostly Cloudy
1:58 PM 47.1 °F - 43.5 °F 87% 29.85 in 6.2 mi SW 15.0 mph - N/A   Overcast
2:42 PM 48.2 °F - 44.6 °F 87% 29.83 in 6.2 mi SW 11.5 mph - N/A   Overcast
3:04 PM 48.2 °F - 44.6 °F 87% 29.83 in 6.2 mi SSW 10.4 mph - N/A   Light Drizzle
3:09 PM 46.4 °F 41.5 °F 44.6 °F 93% 29.83 in 6.2 mi SSW 10.4 mph - N/A   Light Drizzle
3:28 PM 46.4 °F 42.4 °F 44.6 °F 93% 29.83 in 6.2 mi SSW 8.1 mph - N/A   Overcast
3:30 PM 46.4 °F 41.5 °F 44.6 °F 93% 29.82 in 6.2 mi SSW 10.4 mph - N/A Rain Light Rain
3:48 PM 46.4 °F 41.9 °F 44.6 °F 93% 29.82 in 6.2 mi SSW 9.2 mph - N/A   Overcast
3:58 PM 47.1 °F - 44.6 °F 91% 29.83 in 6.2 mi SSW 9.2 mph - 0.00 in   Overcast
4:01 PM 46.4 °F 41.9 °F 44.6 °F 93% 29.82 in 6.2 mi SSW 9.2 mph - N/A   Light Drizzle
4:33 PM 46.4 °F 41.9 °F 44.6 °F 93% 29.82 in 6.2 mi SSW 9.2 mph - N/A   Overcast
4:53 PM 46.4 °F 41.9 °F 44.6 °F 93% 29.82 in 6.2 mi SSW 9.2 mph - N/A   Light Drizzle
4:58 PM 47.1 °F - 44.6 °F 91% 29.84 in 6.2 mi SSW 9.2 mph - 0.00 in Rain Light Rain
5:24 PM 46.4 °F 41.9 °F 44.6 °F 93% 29.83 in 6.2 mi SSW 9.2 mph - N/A   Overcast
5:25 PM 46.4 °F 41.9 °F 44.6 °F 93% 29.83 in 6.2 mi SSW 9.2 mph - N/A Rain Light Rain
5:58 PM 46.6 °F - 44.8 °F 93% 29.83 in 6.2 mi SSW 8.1 mph - 0.03 in Rain Light Rain
6:58 PM 46.8 °F - 45.1 °F 94% 29.82 in 6.2 mi SSW 10.4 mph - 0.02 in Rain Light Rain
7:58 PM 46.2 °F 40.5 °F 44.2 °F 93% 29.81 in 6.2 mi SSW 12.7 mph - 0.03 in Rain Light Rain
8:58 PM 46.0 °F 41.0 °F 44.1 °F 93% 29.81 in 6.2 mi SSW 10.4 mph - 0.01 in Rain Light Rain
9:58 PM 46.0 °F 40.6 °F 44.2 °F 93% 29.81 in 6.2 mi SSW 11.5 mph - 0.01 in Rain Light Rain
10:58 PM 46.0 °F 40.6 °F 44.2 °F 93% 29.80 in 6.2 mi SSW 11.5 mph - 0.01 in Rain Light Rain